contact:dominique.lefevre@mio.osupytheas.fr, maurice.libes@osupytheas.fr, didier.mallarino@osupytheas.fr
Project:EMSO http://www.emso-fr.org/EMSO-France
Depth: 2436.0 m
Title:EMSO Ligure Ouest : Data MII capteur AQUADOPP
Date,Latitude,Longitude,X_East,Y_North,Z_Up,Amplitude_X,Amplitude_Y,Amplitude_Z,Batterie,SoundSpeed,Heading,Pitch,Roll,Pressure,TIS,Speed,Direction
, degrees North, degrees East, m.s-1, m.s-1,m.s-1, 1, 1, 1, Volt, m.s-1, degree, degree, degree, dbar, degree_C, m.s-1, degree
2021-02-03T00:04:03,42.805,6.029,0.051,-0.029,-0.032,108.0,109.0,105.0,13.4,1505.2,327.5,-0.7,1.8,2470.567,13.3,0.058,119.6
2021-02-03T00:07:03,42.805,6.029,0.017,0.0,-0.001,109.0,108.0,103.0,13.3,1505.3,323.6,-0.7,1.8,2470.534,13.31,0.017,90.0
2021-02-03T00:10:03,42.805,6.029,0.004,-0.031,-0.023,108.0,109.0,104.0,13.4,1505.3,326.3,-0.7,1.8,2470.51,13.31,0.031,172.7
2021-02-03T00:13:03,42.805,6.029,0.038,-0.017,0.009,110.0,109.0,105.0,13.4,1505.3,327.0,-0.7,1.8,2470.508,13.32,0.041,114.1
2021-02-03T00:16:03,42.805,6.029,0.018,-0.039,-0.019,109.0,109.0,104.0,13.4,1505.3,325.1,-0.7,1.8,2470.525,13.32,0.042,155.2
2021-02-03T00:19:03,42.805,6.029,0.01,-0.032,-0.02,108.0,110.0,104.0,13.4,1505.3,325.8,-0.7,1.8,2470.465,13.32,0.033,162.6
2021-02-03T00:22:03,42.805,6.029,0.042,-0.024,-0.016,109.0,110.0,104.0,13.4,1505.3,324.0,-0.7,1.9,2470.518,13.32,0.048,119.7
2021-02-03T00:25:03,42.805,6.029,0.015,-0.011,-0.029,110.0,110.0,104.0,13.4,1505.3,325.6,-0.7,1.8,2470.498,13.32,0.018,126.3
2021-02-03T00:28:03,42.805,6.029,0.035,-0.035,-0.036,110.0,108.0,104.0,13.3,1505.3,326.5,-0.7,1.8,2470.484,13.32,0.049,135.0
2021-02-03T00:31:03,42.805,6.029,0.019,-0.027,-0.041,109.0,110.0,104.0,13.4,1505.3,325.1,-0.7,1.8,2470.497,13.32,0.033,144.9
2021-02-03T00:34:03,42.805,6.029,0.055,-0.05,0.006,109.0,109.0,105.0,13.4,1505.3,324.4,-0.7,1.8,2470.514,13.32,0.074,132.3
2021-02-03T00:40:03,42.805,6.029,0.053,-0.034,0.009,109.0,110.0,105.0,13.4,1505.2,325.9,-0.7,1.8,2470.514,13.3,0.062,122.7
2021-02-03T00:43:03,42.805,6.029,0.004,-0.016,0.012,108.0,112.0,105.0,13.3,1505.3,323.9,-0.7,1.8,2470.522,13.31,0.016,166.0
2021-02-03T00:46:03,42.805,6.029,0.042,-0.021,0.028,110.0,110.0,105.0,13.4,1505.3,324.3,-0.7,1.8,2470.482,13.32,0.046,116.6
2021-02-03T00:49:03,42.805,6.029,0.035,-0.035,-0.009,109.0,110.0,105.0,13.4,1505.3,327.4,-0.7,1.8,2470.502,13.32,0.049,135.0
2021-02-03T00:52:03,42.805,6.029,0.019,-0.042,-0.042,109.0,110.0,106.0,13.3,1505.3,324.1,-0.7,1.8,2470.518,13.32,0.046,155.7
2021-02-03T00:55:03,42.805,6.029,0.028,-0.026,0.016,110.0,109.0,106.0,13.4,1505.3,326.8,-0.7,1.8,2470.428,13.32,0.038,132.9
2021-02-03T00:58:03,42.805,6.029,0.039,-0.032,-0.014,109.0,110.0,106.0,13.4,1505.3,324.6,-0.7,1.8,2470.45,13.32,0.05,129.4
2021-02-03T01:04:03,42.805,6.029,0.004,-0.027,0.02,109.0,111.0,106.0,13.4,1505.2,324.5,-0.8,1.8,2470.489,13.3,0.027,171.6
2021-02-03T01:07:03,42.805,6.029,0.013,-0.023,0.003,110.0,111.0,106.0,13.4,1505.3,327.4,-0.7,1.9,2470.499,13.31,0.026,150.5
2021-02-03T01:10:03,42.805,6.029,0.028,-0.015,0.006,109.0,110.0,105.0,13.4,1505.3,324.6,-0.7,1.9,2470.478,13.31,0.031,118.2
2021-02-03T01:13:03,42.805,6.029,0.042,-0.037,0.035,109.0,110.0,105.0,13.4,1505.3,326.7,-0.7,1.8,2470.452,13.32,0.055,131.4
2021-02-03T01:16:03,42.805,6.029,0.021,-0.049,0.007,108.0,110.0,106.0,13.4,1505.3,324.5,-0.7,1.8,2470.494,13.32,0.053,156.8
2021-02-03T01:19:03,42.805,6.029,0.024,-0.036,0.0,109.0,109.0,105.0,13.4,1505.3,324.9,-0.7,1.8,2470.482,13.32,0.043,146.3
2021-02-03T01:22:03,42.805,6.029,0.005,-0.025,-0.006,109.0,110.0,105.0,13.4,1505.3,327.4,-0.7,1.8,2470.492,13.32,0.025,168.7
2021-02-03T01:25:03,42.805,6.029,0.006,-0.04,-0.029,110.0,110.0,106.0,13.4,1505.3,323.2,-0.7,1.8,2470.421,13.32,0.04,171.5
2021-02-03T01:28:03,42.805,6.029,0.019,-0.048,0.005,108.0,111.0,106.0,13.4,1505.3,325.4,-0.7,1.8,2470.456,13.32,0.051,158.4
2021-02-03T01:31:03,42.805,6.029,0.021,-0.035,-0.009,109.0,110.0,105.0,13.4,1505.3,326.3,-0.7,1.8,2470.439,13.32,0.04,149.0
2021-02-03T01:34:03,42.805,6.029,0.032,-0.031,0.006,110.0,108.0,105.0,13.4,1505.3,326.0,-0.7,1.8,2470.438,13.32,0.044,134.1
2021-02-03T01:37:03,42.805,6.029,0.035,-0.036,0.005,110.0,109.0,105.0,13.4,1505.3,324.2,-0.7,1.8,2470.49,13.32,0.05,135.8
2021-02-03T01:40:03,42.805,6.029,0.018,-0.035,-0.002,109.0,110.0,105.0,13.4,1505.3,325.3,-0.7,1.8,2470.462,13.32,0.039,152.8
2021-02-03T01:43:03,42.805,6.029,0.017,-0.039,-0.017,108.0,110.0,105.0,13.4,1505.3,327.9,-0.7,1.8,2470.429,13.32,0.042,156.5
2021-02-03T01:46:03,42.805,6.029,0.029,-0.037,-0.027,109.0,110.0,105.0,13.4,1505.3,328.1,-0.7,1.8,2470.455,13.32,0.047,141.9
2021-02-03T01:49:03,42.805,6.029,0.023,-0.034,-0.026,109.0,108.0,105.0,13.4,1505.3,323.4,-0.7,1.8,2470.436,13.32,0.041,145.9
2021-02-03T01:52:03,42.805,6.029,0.013,-0.028,-0.031,110.0,110.0,105.0,13.4,1505.3,323.0,-0.7,1.8,2470.446,13.32,0.03,155.1
2021-02-03T01:55:03,42.805,6.029,0.006,-0.045,0.0,109.0,110.0,105.0,13.4,1505.3,323.1,-0.7,1.8,2470.436,13.32,0.045,172.4
2021-02-03T01:58:03,42.805,6.029,0.007,-0.044,-0.02,109.0,110.0,105.0,13.4,1505.3,324.5,-0.7,1.8,2470.457,13.32,0.044,171.0
2021-02-03T02:04:03,42.805,6.029,0.013,-0.049,-0.021,110.0,110.0,106.0,13.3,1505.2,325.9,-0.8,1.8,2470.502,13.3,0.05,165.1
2021-02-03T02:07:03,42.805,6.029,0.015,-0.027,0.005,108.0,110.0,104.0,13.4,1505.3,327.0,-0.7,1.9,2470.451,13.31,0.03,150.9
2021-02-03T02:10:03,42.805,6.029,0.0,-0.022,0.006,108.0,110.0,105.0,13.4,1505.3,324.2,-0.7,1.8,2470.459,13.31,0.022,180.0
2021-02-03T02:13:03,42.805,6.029,0.027,-0.037,-0.009,109.0,110.0,104.0,13.4,1505.3,324.0,-0.7,1.8,2470.46,13.32,0.045,143.9
2021-02-03T02:16:03,42.805,6.029,0.014,-0.046,0.011,109.0,111.0,106.0,13.4,1505.3,324.6,-0.7,1.8,2470.464,13.32,0.048,163.1
2021-02-03T02:19:03,42.805,6.029,0.014,-0.036,0.006,110.0,110.0,105.0,13.3,1505.3,323.6,-0.7,1.9,2470.458,13.32,0.038,158.8
2021-02-03T02:22:03,42.805,6.029,0.018,-0.023,-0.008,109.0,110.0,106.0,13.4,1505.3,322.9,-0.7,1.8,2470.413,13.32,0.029,142.0
2021-02-03T02:25:03,42.805,6.029,0.036,-0.035,0.0,110.0,109.0,105.0,13.3,1505.3,326.3,-0.7,1.8,2470.485,13.32,0.05,134.2
2021-02-03T02:28:03,42.805,6.029,0.014,-0.043,-0.009,109.0,109.0,106.0,13.4,1505.3,324.2,-0.7,1.8,2470.437,13.32,0.045,162.0
2021-02-03T02:31:03,42.805,6.029,0.007,-0.038,-0.012,110.0,110.0,104.0,13.4,1505.3,327.9,-0.7,1.8,2470.409,13.32,0.038,169.6
2021-02-03T02:34:03,42.805,6.029,0.002,-0.025,-0.033,110.0,110.0,105.0,13.3,1505.3,323.2,-0.7,1.8,2470.411,13.32,0.025,175.4
2021-02-03T02:37:03,42.805,6.029,-0.006,-0.041,-0.013,109.0,110.0,106.0,13.4,1505.3,326.4,-0.7,1.8,2470.421,13.32,0.041,188.3
2021-02-03T02:40:03,42.805,6.029,-0.003,-0.026,0.017,110.0,109.0,105.0,13.3,1505.3,324.8,-0.7,1.8,2470.394,13.32,0.026,186.6
2021-02-03T02:43:03,42.805,6.029,0.024,-0.046,0.0,111.0,108.0,106.0,13.4,1505.3,324.8,-0.7,1.8,2470.431,13.32,0.051,152.4
2021-02-03T02:46:03,42.805,6.029,0.007,-0.013,0.003,109.0,109.0,104.0,13.3,1505.3,324.2,-0.7,1.8,2470.407,13.32,0.014,151.7
2021-02-03T02:49:03,42.805,6.029,0.03,-0.032,0.024,110.0,109.0,105.0,13.4,1505.3,327.3,-0.7,1.8,2470.402,13.32,0.043,136.9
2021-02-03T02:52:03,42.805,6.029,-0.006,-0.05,-0.004,109.0,109.0,105.0,13.3,1505.3,328.0,-0.7,1.8,2470.421,13.32,0.05,186.8
2021-02-03T02:55:03,42.805,6.029,0.02,-0.039,-0.024,109.0,109.0,105.0,13.3,1505.3,328.3,-0.7,1.8,2470.455,13.32,0.043,152.9
2021-02-03T02:58:03,42.805,6.029,-0.006,-0.038,0.015,110.0,110.0,106.0,13.4,1505.3,326.1,-0.7,1.8,2470.426,13.32,0.038,189.0
2021-02-03T03:04:03,42.805,6.029,0.015,-0.044,-0.001,109.0,109.0,105.0,13.4,1505.2,324.5,-0.7,1.8,2470.462,13.3,0.046,161.2
2021-02-03T03:07:03,42.805,6.029,0.02,-0.048,-0.015,108.0,109.0,105.0,13.4,1505.3,323.6,-0.7,1.8,2470.479,13.31,0.052,157.4
2021-02-03T03:10:03,42.805,6.029,-0.001,-0.029,0.0,111.0,109.0,105.0,13.4,1505.3,324.6,-0.7,1.8,2470.465,13.31,0.029,182.0
2021-02-03T03:13:03,42.805,6.029,-0.017,-0.037,-0.034,109.0,110.0,105.0,13.4,1505.3,323.5,-0.7,1.9,2470.461,13.32,0.04,204.7
2021-02-03T03:16:03,42.805,6.029,0.013,-0.035,-0.022,110.0,109.0,105.0,13.3,1505.3,325.9,-0.7,1.8,2470.45,13.32,0.037,159.6
2021-02-03T03:19:03,42.805,6.029,0.009,-0.044,0.003,109.0,110.0,105.0,13.4,1505.3,325.9,-0.7,1.8,2470.424,13.32,0.044,168.4
2021-02-03T03:22:03,42.805,6.029,0.016,-0.049,0.003,109.0,108.0,106.0,13.3,1505.3,326.5,-0.7,1.8,2470.46,13.32,0.051,161.9
2021-02-03T03:25:03,42.805,6.029,0.009,-0.053,-0.001,110.0,108.0,105.0,13.4,1505.3,326.8,-0.7,1.9,2470.436,13.32,0.053,170.4
2021-02-03T03:28:03,42.805,6.029,0.02,-0.048,-0.005,110.0,109.0,105.0,13.4,1505.3,326.5,-0.7,1.8,2470.393,13.32,0.052,157.4
2021-02-03T03:31:03,42.805,6.029,-0.008,-0.045,-0.012,109.0,110.0,106.0,13.4,1505.3,327.1,-0.7,1.8,2470.389,13.32,0.045,190.1
2021-02-03T03:34:03,42.805,6.029,0.011,-0.058,-0.008,110.0,110.0,106.0,13.4,1505.3,326.2,-0.7,1.8,2470.409,13.32,0.059,169.3
2021-02-03T03:37:03,42.805,6.029,0.019,-0.047,0.006,109.0,109.0,105.0,13.3,1505.3,323.5,-0.7,1.8,2470.42,13.32,0.05,158.0
2021-02-03T03:40:03,42.805,6.029,-0.004,-0.057,-0.027,110.0,109.0,105.0,13.3,1505.3,326.8,-0.7,1.8,2470.372,13.32,0.057,184.0
2021-02-03T03:43:03,42.805,6.029,0.016,-0.047,0.002,109.0,109.0,105.0,13.4,1505.3,323.3,-0.7,1.8,2470.406,13.32,0.049,161.2
2021-02-03T03:46:03,42.805,6.029,0.008,-0.039,-0.004,111.0,110.0,104.0,13.4,1505.3,325.0,-0.7,1.8,2470.383,13.32,0.039,168.4
2021-02-03T03:49:03,42.805,6.029,-0.012,-0.037,0.01,109.0,110.0,105.0,13.4,1505.3,327.2,-0.7,1.9,2470.401,13.32,0.038,198.0
2021-02-03T03:52:03,42.805,6.029,-0.014,-0.035,0.002,109.0,109.0,106.0,13.3,1505.3,325.5,-0.7,1.8,2470.38,13.32,0.037,201.8
2021-02-03T03:55:03,42.805,6.029,0.013,-0.043,-0.004,111.0,110.0,105.0,13.3,1505.3,323.9,-0.7,1.8,2470.425,13.32,0.044,163.2
2021-02-03T03:58:03,42.805,6.029,0.009,-0.045,-0.033,111.0,109.0,105.0,13.3,1505.3,328.3,-0.7,1.8,2470.42,13.32,0.045,168.7
2021-02-03T04:04:03,42.805,6.029,-0.003,-0.04,-0.02,110.0,111.0,106.0,13.3,1505.2,323.9,-0.7,1.8,2470.423,13.3,0.04,184.3
2021-02-03T04:07:03,42.805,6.029,0.013,-0.046,-0.022,109.0,109.0,106.0,13.4,1505.3,326.9,-0.7,1.8,2470.417,13.31,0.047,164.2
2021-02-03T04:10:03,42.805,6.029,0.019,-0.049,-0.001,109.0,110.0,106.0,13.4,1505.3,326.5,-0.7,1.8,2470.445,13.31,0.052,158.8
2021-02-03T04:13:03,42.805,6.029,-0.012,-0.036,-0.047,111.0,111.0,105.0,13.3,1505.3,326.3,-0.7,1.8,2470.435,13.32,0.037,198.4
2021-02-03T04:16:03,42.805,6.029,0.014,-0.04,-0.019,110.0,111.0,106.0,13.3,1505.3,323.8,-0.7,1.8,2470.362,13.32,0.042,160.7
2021-02-03T04:19:03,42.805,6.029,-0.01,-0.058,-0.036,111.0,111.0,104.0,13.4,1505.3,325.7,-0.7,1.8,2470.419,13.32,0.058,189.8
2021-02-03T04:22:03,42.805,6.029,0.006,-0.036,0.007,110.0,112.0,105.0,13.3,1505.3,326.9,-0.7,1.8,2470.384,13.32,0.036,170.5
2021-02-03T04:25:03,42.805,6.029,-0.009,-0.065,-0.007,109.0,112.0,107.0,13.3,1505.3,324.1,-0.7,1.8,2470.419,13.32,0.065,187.9
2021-02-03T04:28:03,42.805,6.029,-0.006,-0.061,-0.005,111.0,109.0,105.0,13.3,1505.3,327.0,-0.7,1.8,2470.382,13.32,0.061,185.6
2021-02-03T04:31:03,42.805,6.029,0.006,-0.042,-0.02,111.0,112.0,105.0,13.4,1505.3,324.4,-0.7,1.8,2470.386,13.32,0.042,171.9
2021-02-03T04:34:03,42.805,6.029,0.004,-0.049,-0.011,110.0,112.0,106.0,13.4,1505.3,325.6,-0.7,1.8,2470.384,13.32,0.049,175.3
2021-02-03T04:37:03,42.805,6.029,-0.001,-0.038,-0.025,111.0,111.0,105.0,13.3,1505.3,326.9,-0.7,1.8,2470.402,13.32,0.038,181.5
2021-02-03T04:40:03,42.805,6.029,0.029,-0.054,-0.005,109.0,111.0,107.0,13.4,1505.3,325.8,-0.7,1.8,2470.384,13.32,0.061,151.8
2021-02-03T04:43:03,42.805,6.029,-0.016,-0.046,-0.039,110.0,111.0,105.0,13.4,1505.3,323.2,-0.7,1.8,2470.389,13.32,0.048,199.2
2021-02-03T04:46:03,42.805,6.029,-0.007,-0.032,-0.008,111.0,110.0,105.0,13.4,1505.3,323.4,-0.7,1.8,2470.359,13.32,0.032,192.3
2021-02-03T04:49:03,42.805,6.029,0.025,-0.027,-0.03,113.0,111.0,106.0,13.4,1505.3,323.1,-0.7,1.8,2470.397,13.32,0.036,137.2
2021-02-03T04:52:03,42.805,6.029,0.011,-0.056,0.003,110.0,111.0,105.0,13.4,1505.3,323.6,-0.7,1.8,2470.35,13.32,0.057,168.9
2021-02-03T04:55:03,42.805,6.029,-0.004,-0.043,0.01,111.0,111.0,106.0,13.4,1505.3,327.1,-0.7,1.8,2470.385,13.32,0.043,185.3
2021-02-03T04:58:03,42.805,6.029,0.024,-0.037,0.001,110.0,111.0,107.0,13.4,1505.3,325.4,-0.7,1.8,2470.379,13.32,0.044,147.0
2021-02-03T05:04:03,42.805,6.029,0.011,-0.043,0.018,110.0,110.0,105.0,13.4,1505.2,327.2,-0.7,1.8,2470.414,13.3,0.044,165.7
2021-02-03T05:07:03,42.805,6.029,0.017,-0.05,0.032,110.0,111.0,106.0,13.4,1505.3,326.3,-0.7,1.8,2470.409,13.31,0.052,161.2
2021-02-03T05:10:03,42.805,6.029,-0.022,-0.058,-0.007,110.0,109.0,105.0,13.4,1505.3,324.9,-0.7,1.8,2470.436,13.31,0.062,200.8
2021-02-03T05:13:03,42.805,6.029,-0.009,-0.035,-0.035,110.0,111.0,105.0,13.3,1505.3,324.9,-0.7,1.9,2470.421,13.32,0.036,194.4
2021-02-03T05:16:03,42.805,6.029,0.006,-0.065,-0.016,110.0,111.0,107.0,13.4,1505.3,324.3,-0.7,1.8,2470.38,13.32,0.065,174.7
2021-02-03T05:19:03,42.805,6.029,-0.018,-0.043,0.006,111.0,110.0,106.0,13.3,1505.3,328.0,-0.7,1.8,2470.401,13.32,0.046,202.7
2021-02-03T05:22:03,42.805,6.029,0.004,-0.032,-0.008,110.0,112.0,107.0,13.4,1505.3,327.4,-0.7,1.8,2470.363,13.32,0.032,172.9
2021-02-03T05:25:03,42.805,6.029,-0.017,-0.056,-0.029,111.0,109.0,105.0,13.4,1505.3,323.5,-0.7,1.8,2470.387,13.32,0.058,196.9
2021-02-03T05:28:03,42.805,6.029,0.011,-0.037,-0.015,110.0,110.0,106.0,13.4,1505.3,325.0,-0.7,1.8,2470.364,13.32,0.038,163.4
2021-02-03T05:31:03,42.805,6.029,-0.024,-0.024,-0.025,109.0,110.0,106.0,13.4,1505.3,324.2,-0.7,1.8,2470.356,13.32,0.033,225.0
2021-02-03T05:34:03,42.805,6.029,-0.001,-0.058,-0.003,111.0,111.0,106.0,13.3,1505.3,324.9,-0.7,1.8,2470.407,13.32,0.058,181.0
2021-02-03T05:37:03,42.805,6.029,-0.016,-0.029,-0.001,111.0,111.0,106.0,13.4,1505.3,324.2,-0.6,1.8,2470.403,13.32,0.033,208.9
2021-02-03T05:40:03,42.805,6.029,-0.019,-0.036,0.007,110.0,110.0,107.0,13.4,1505.3,326.4,-0.7,1.8,2470.399,13.32,0.04,207.8
2021-02-03T05:43:03,42.805,6.029,-0.008,-0.05,0.008,110.0,111.0,106.0,13.4,1505.3,327.8,-0.7,1.8,2470.392,13.32,0.05,189.1
2021-02-03T05:46:03,42.805,6.029,-0.003,-0.026,-0.019,112.0,110.0,105.0,13.3,1505.3,328.3,-0.7,1.8,2470.351,13.32,0.026,186.6
2021-02-03T05:49:03,42.805,6.029,-0.025,-0.04,0.003,111.0,110.0,106.0,13.3,1505.3,327.8,-0.7,1.9,2470.38,13.32,0.047,212.0
2021-02-03T05:52:03,42.805,6.029,-0.007,-0.041,-0.033,111.0,111.0,105.0,13.3,1505.3,324.0,-0.7,1.8,2470.355,13.32,0.041,189.7
2021-02-03T05:55:03,42.805,6.029,-0.007,-0.045,-0.004,110.0,112.0,106.0,13.4,1505.3,326.6,-0.7,1.8,2470.391,13.32,0.045,188.8
2021-02-03T05:58:03,42.805,6.029,0.009,-0.011,0.013,111.0,110.0,106.0,13.4,1505.3,327.6,-0.7,1.8,2470.359,13.32,0.014,140.7
2021-02-03T06:04:03,42.805,6.029,-0.001,-0.059,-0.007,109.0,110.0,107.0,13.4,1505.2,326.4,-0.7,1.8,2470.414,13.3,0.059,181.0
2021-02-03T06:07:03,42.805,6.029,-0.022,-0.04,-0.02,111.0,110.0,105.0,13.4,1505.3,328.5,-0.7,1.8,2470.441,13.31,0.045,208.8
2021-02-03T06:10:03,42.805,6.029,0.001,-0.03,0.02,111.0,110.0,105.0,13.3,1505.3,326.2,-0.7,1.8,2470.426,13.31,0.03,178.1
2021-02-03T06:13:03,42.805,6.029,-0.032,-0.037,-0.052,109.0,111.0,104.0,13.4,1505.3,327.9,-0.7,1.8,2470.419,13.32,0.048,220.9
2021-02-03T06:16:03,42.805,6.029,-0.006,-0.059,-0.004,110.0,109.0,104.0,13.3,1505.3,323.2,-0.7,1.8,2470.416,13.32,0.059,185.8
2021-02-03T06:19:03,42.805,6.029,0.003,-0.029,-0.024,109.0,110.0,105.0,13.4,1505.3,324.4,-0.7,1.9,2470.43,13.32,0.029,174.1
2021-02-03T06:22:03,42.805,6.029,-0.019,-0.029,0.001,108.0,111.0,105.0,13.4,1505.3,327.7,-0.7,1.8,2470.355,13.32,0.034,213.2
2021-02-03T06:25:03,42.805,6.029,-0.02,-0.039,-0.027,110.0,110.0,104.0,13.4,1505.3,324.1,-0.7,1.9,2470.401,13.32,0.043,207.1
2021-02-03T06:28:03,42.805,6.029,0.011,-0.051,-0.007,109.0,110.0,104.0,13.4,1505.3,323.4,-0.7,1.8,2470.391,13.32,0.052,167.8
2021-02-03T06:31:03,42.805,6.029,-0.001,-0.039,0.001,110.0,110.0,105.0,13.3,1505.3,326.8,-0.7,1.8,2470.378,13.32,0.039,181.5
2021-02-03T06:34:03,42.805,6.029,0.009,-0.032,-0.019,110.0,109.0,105.0,13.4,1505.3,325.7,-0.7,1.8,2470.417,13.32,0.033,164.3
2021-02-03T06:37:03,42.805,6.029,0.003,-0.021,0.015,110.0,109.0,106.0,13.4,1505.3,326.6,-0.7,1.8,2470.387,13.32,0.021,171.9
2021-02-03T06:40:03,42.805,6.029,-0.005,-0.029,-0.008,110.0,109.0,105.0,13.3,1505.3,325.8,-0.7,1.8,2470.39,13.32,0.029,189.8
2021-02-03T06:43:03,42.805,6.029,0.004,-0.042,0.008,109.0,109.0,105.0,13.3,1505.3,326.3,-0.7,1.8,2470.423,13.32,0.042,174.6
2021-02-03T06:46:03,42.805,6.029,-0.018,-0.053,-0.025,109.0,109.0,105.0,13.3,1505.3,325.2,-0.7,1.8,2470.377,13.32,0.055,198.8
2021-02-03T06:49:03,42.805,6.029,-0.008,-0.052,-0.023,108.0,110.0,106.0,13.4,1505.3,326.4,-0.7,1.8,2470.37,13.32,0.052,188.7
2021-02-03T06:52:03,42.805,6.029,-0.001,-0.047,-0.009,109.0,108.0,105.0,13.4,1505.3,325.3,-0.7,1.8,2470.385,13.32,0.047,181.2
2021-02-03T06:55:03,42.805,6.029,0.002,-0.048,0.005,110.0,108.0,104.0,13.4,1505.3,326.6,-0.7,1.8,2470.349,13.32,0.048,177.6
2021-02-03T06:58:03,42.805,6.029,0.006,-0.037,-0.021,109.0,109.0,104.0,13.4,1505.3,323.6,-0.7,1.8,2470.396,13.32,0.037,170.8
2021-02-03T07:04:03,42.805,6.029,-0.004,-0.025,-0.053,109.0,110.0,105.0,13.4,1505.2,326.9,-0.7,1.8,2470.426,13.3,0.025,189.1
2021-02-03T07:07:03,42.805,6.029,-0.008,-0.034,-0.016,108.0,109.0,104.0,13.4,1505.3,326.0,-0.7,1.8,2470.442,13.31,0.034,193.2
2021-02-03T07:10:03,42.805,6.029,0.032,-0.055,-0.01,108.0,110.0,103.0,13.3,1505.3,324.5,-0.7,1.8,2470.445,13.32,0.063,149.8
2021-02-03T07:13:03,42.805,6.029,0.0,-0.022,0.002,107.0,109.0,103.0,13.4,1505.3,328.0,-0.7,1.8,2470.436,13.32,0.022,180.0
2021-02-03T07:16:03,42.805,6.029,0.027,-0.06,-0.014,107.0,109.0,104.0,13.3,1505.3,323.1,-0.7,1.8,2470.427,13.32,0.065,155.8
2021-02-03T07:19:03,42.805,6.029,-0.005,-0.031,0.008,106.0,109.0,104.0,13.4,1505.3,326.5,-0.7,1.8,2470.446,13.32,0.031,189.2
2021-02-03T07:22:03,42.805,6.029,0.014,-0.032,0.017,107.0,108.0,103.0,13.4,1505.3,325.9,-0.7,1.8,2470.458,13.32,0.034,156.4
2021-02-03T07:25:03,42.805,6.029,-0.022,-0.015,0.019,108.0,108.0,103.0,13.4,1505.3,324.3,-0.7,1.9,2470.4,13.32,0.026,235.7
2021-02-03T07:28:03,42.805,6.029,-0.015,-0.028,-0.004,108.0,109.0,104.0,13.4,1505.3,325.5,-0.7,1.9,2470.394,13.32,0.031,208.2
2021-02-03T07:31:03,42.805,6.029,-0.01,-0.023,-0.029,107.0,108.0,104.0,13.3,1505.3,325.6,-0.7,1.8,2470.431,13.32,0.025,203.5
2021-02-03T07:34:03,42.805,6.029,-0.006,-0.035,0.021,107.0,109.0,104.0,13.4,1505.3,326.7,-0.7,1.8,2470.389,13.32,0.035,189.7
2021-02-03T07:40:03,42.805,6.029,-0.014,-0.046,-0.013,108.0,108.0,102.0,13.4,1505.2,324.5,-0.7,1.8,2470.473,13.3,0.048,196.9
2021-02-03T07:43:03,42.805,6.029,-0.004,-0.037,-0.025,106.0,107.0,103.0,13.4,1505.3,323.3,-0.7,1.9,2470.464,13.31,0.037,186.2
2021-02-03T07:46:03,42.805,6.029,-0.018,-0.032,-0.034,107.0,108.0,104.0,13.4,1505.3,324.1,-0.7,1.9,2470.458,13.32,0.036,209.4
2021-02-03T07:49:03,42.805,6.029,0.017,-0.047,0.034,106.0,109.0,103.0,13.4,1505.3,326.2,-0.7,1.8,2470.46,13.32,0.049,160.1
2021-02-03T07:52:03,42.805,6.029,0.015,-0.047,-0.011,107.0,108.0,104.0,13.4,1505.3,326.6,-0.7,1.8,2470.447,13.32,0.049,162.3
2021-02-03T07:55:03,42.805,6.029,-0.013,-0.04,-0.005,106.0,108.0,104.0,13.4,1505.3,326.4,-0.7,1.8,2470.489,13.32,0.042,198.0
2021-02-03T07:58:03,42.805,6.029,-0.015,-0.054,-0.032,106.0,108.0,102.0,13.4,1505.3,327.0,-0.7,1.8,2470.468,13.32,0.056,195.5
2021-02-03T08:04:03,42.805,6.029,0.002,-0.034,-0.012,107.0,108.0,104.0,13.4,1505.2,326.1,-0.7,1.9,2470.517,13.3,0.034,176.6
2021-02-03T08:07:03,42.805,6.029,-0.018,-0.044,-0.031,106.0,108.0,103.0,13.3,1505.3,326.7,-0.7,1.8,2470.526,13.31,0.047,202.2
2021-02-03T08:10:03,42.805,6.029,-0.009,-0.049,-0.003,105.0,110.0,104.0,13.3,1505.3,325.8,-0.7,1.8,2470.562,13.31,0.049,190.4
2021-02-03T08:13:03,42.805,6.029,-0.002,-0.048,-0.039,106.0,108.0,103.0,13.4,1505.3,324.6,-0.7,1.9,2470.512,13.32,0.048,182.4
2021-02-03T08:16:03,42.805,6.029,-0.007,-0.032,-0.001,107.0,107.0,103.0,13.4,1505.3,326.4,-0.7,1.8,2470.468,13.32,0.032,192.3
2021-02-03T08:19:03,42.805,6.029,0.028,-0.021,-0.003,107.0,108.0,103.0,13.3,1505.3,327.4,-0.7,1.9,2470.506,13.32,0.035,126.9
2021-02-03T08:22:03,42.805,6.029,0.019,-0.057,0.01,107.0,108.0,102.0,13.4,1505.3,323.7,-0.7,1.8,2470.464,13.32,0.06,161.6
2021-02-03T08:25:03,42.805,6.029,0.004,-0.027,0.009,107.0,108.0,104.0,13.4,1505.3,326.8,-0.7,1.8,2470.522,13.32,0.027,171.6
2021-02-03T08:28:03,42.805,6.029,-0.012,-0.035,-0.029,106.0,108.0,103.0,13.4,1505.3,327.4,-0.7,1.8,2470.492,13.32,0.037,198.9
2021-02-03T08:31:03,42.805,6.029,0.017,-0.027,0.015,106.0,109.0,103.0,13.4,1505.3,325.8,-0.7,1.8,2470.518,13.32,0.031,147.8
2021-02-03T08:34:03,42.805,6.029,-0.008,-0.028,-0.023,107.0,109.0,104.0,13.4,1505.3,325.2,-0.7,1.8,2470.516,13.32,0.029,195.9
2021-02-03T08:37:03,42.805,6.029,-0.011,-0.02,0.003,105.0,107.0,102.0,13.3,1505.3,326.9,-0.7,1.8,2470.506,13.32,0.022,208.8
2021-02-03T08:40:03,42.805,6.029,-0.022,-0.025,-0.009,105.0,107.0,103.0,13.4,1505.3,323.7,-0.7,1.8,2470.499,13.32,0.033,221.3
2021-02-03T08:43:03,42.805,6.029,0.014,-0.029,0.001,107.0,109.0,102.0,13.3,1505.3,325.9,-0.7,1.8,2470.503,13.32,0.032,154.2
2021-02-03T08:46:03,42.805,6.029,-0.015,-0.055,0.004,107.0,107.0,103.0,13.4,1505.3,324.2,-0.7,1.9,2470.535,13.32,0.057,195.3
2021-02-03T08:49:03,42.805,6.029,-0.012,-0.044,-0.023,108.0,107.0,103.0,13.4,1505.3,326.8,-0.7,1.8,2470.518,13.32,0.045,195.3
2021-02-03T08:52:03,42.805,6.029,-0.022,-0.02,-0.016,108.0,108.0,105.0,13.3,1505.3,326.5,-0.7,1.8,2470.528,13.32,0.029,227.7
2021-02-03T08:55:03,42.805,6.029,0.005,-0.047,-0.009,107.0,109.0,104.0,13.3,1505.3,324.4,-0.7,1.8,2470.493,13.32,0.047,173.9
2021-02-03T08:58:03,42.805,6.029,-0.038,-0.035,-0.009,107.0,108.0,104.0,13.3,1505.3,327.5,-0.7,1.8,2470.514,13.32,0.051,227.4
2021-02-03T09:04:03,42.805,6.029,-0.016,-0.03,-0.039,106.0,106.0,103.0,13.4,1505.2,326.4,-0.7,1.8,2470.612,13.3,0.034,208.1
2021-02-03T09:07:03,42.805,6.029,-0.011,-0.045,0.0,104.0,107.0,103.0,13.4,1505.3,324.9,-0.7,1.9,2470.567,13.31,0.046,193.7
2021-02-03T09:10:03,42.805,6.029,-0.008,-0.043,0.031,107.0,106.0,103.0,13.3,1505.3,327.1,-0.7,1.8,2470.596,13.32,0.043,190.5
2021-02-03T09:13:03,42.805,6.029,-0.005,-0.027,-0.011,106.0,109.0,103.0,13.4,1505.3,327.8,-0.7,1.8,2470.517,13.32,0.027,190.5
2021-02-03T09:16:03,42.805,6.029,-0.017,-0.027,-0.021,105.0,108.0,102.0,13.3,1505.3,327.7,-0.7,1.8,2470.585,13.32,0.031,212.2
2021-02-03T09:19:03,42.805,6.029,-0.024,-0.029,0.003,107.0,106.0,104.0,13.4,1505.3,328.2,-0.7,1.8,2470.566,13.32,0.037,219.6
2021-02-03T09:22:03,42.805,6.029,-0.011,-0.017,-0.011,106.0,107.0,103.0,13.4,1505.3,326.2,-0.7,1.8,2470.557,13.32,0.02,212.9
2021-02-03T09:25:03,42.805,6.029,-0.016,-0.041,0.012,106.0,108.0,102.0,13.3,1505.3,325.0,-0.7,1.8,2470.579,13.32,0.044,201.3
2021-02-03T09:28:03,42.805,6.029,-0.055,-0.048,-0.008,107.0,106.0,102.0,13.4,1505.3,327.1,-0.8,1.8,2470.584,13.32,0.072,228.9
2021-02-03T09:31:03,42.805,6.029,-0.004,-0.03,0.027,106.0,107.0,103.0,13.4,1505.3,325.6,-0.7,1.9,2470.574,13.32,0.03,187.6
2021-02-03T09:34:03,42.805,6.029,0.007,-0.024,0.01,107.0,108.0,102.0,13.4,1505.3,327.5,-0.7,1.8,2470.547,13.32,0.025,163.7
2021-02-03T09:37:03,42.805,6.029,-0.035,-0.021,0.007,107.0,108.0,103.0,13.4,1505.3,327.1,-0.7,1.8,2470.541,13.32,0.04,239.0
2021-02-03T09:40:03,42.805,6.029,-0.026,-0.045,-0.027,107.0,108.0,103.0,13.3,1505.3,326.9,-0.7,1.8,2470.549,13.32,0.051,210.0
2021-02-03T09:43:03,42.805,6.029,0.003,-0.029,0.003,107.0,107.0,103.0,13.4,1505.3,324.9,-0.7,1.8,2470.644,13.33,0.029,174.1
2021-02-03T09:46:03,42.805,6.029,0.014,-0.025,0.0,107.0,107.0,104.0,13.3,1505.3,326.2,-0.7,1.8,2470.596,13.33,0.028,150.7
2021-02-03T09:49:03,42.805,6.029,0.002,-0.042,-0.01,107.0,107.0,104.0,13.3,1505.3,325.8,-0.7,1.8,2470.562,13.33,0.042,177.3
2021-02-03T09:52:03,42.805,6.029,0.022,-0.044,0.0,106.0,109.0,103.0,13.4,1505.3,327.3,-0.7,1.8,2470.58,13.32,0.049,153.4
2021-02-03T09:55:03,42.805,6.029,0.022,-0.04,-0.017,106.0,108.0,103.0,13.4,1505.3,325.6,-0.7,1.8,2470.571,13.33,0.045,151.2
2021-02-03T09:58:03,42.805,6.029,0.016,-0.044,0.008,107.0,108.0,102.0,13.3,1505.3,323.1,-0.7,1.8,2470.562,13.32,0.046,160.0